STARLINK-2414

Last updated on Sat May 08 2021 00:02:03 GMT+0000 (Coordinated Universal Time)

1 48095U 21027D 21127.58334491 .00056264 00000-0 40265-3 0 9991 2 48095 53.0470 191.7227 0002446 19.8285 293.9937 15.73192120 1773

Satellite not in orbit